Powrót do katalogu

BRO-6

AktywnyNaukaSSO
NORAD 52422·PAYLOAD·🇫🇷 France

Wystrzelony May 2, 2022 z Rocket Lab Launch Complex 1

Loading…

Następne Przeloty (najbliższe 24 godziny)

TLE

ŚwieżeSource: Space-Track

Epoka: Sep 14, 2026, 12:28 UTC

1 52422U 22047AE  26257.51976332  .00039531  00000-0  53674-3 0  9997
2 52422  97.3364 350.7153 0005266 102.4505 257.7340 15.57515449245026

Śledź BRO-6 w czasie rzeczywistym z AllMySat

Download on the App Store